EW5165 Weather Reports


time (UTC)temp
C
wind
direction
speed
KPH
gust
KPH
rain 1hr
cm
rain 24hr
cm
rain mn
cm
humidity
%
barometer
mb
20260906045004 22 0 0.0 0.0 0.00 0.00 0.00 96 1015.7
20260906044503 22 0 0.0 0.0 0.00 0.00 0.00 96 1015.8
20260906044003 22 0 0.0 0.0 0.00 0.00 0.00 96 1015.8
20260906043503 22 0 0.0 0.0 0.00 0.00 0.00 96 1015.8
20260906043003 22 0 0.0 0.0 0.00 0.00 0.00 96 1015.7
20260906042004 22 0 0.0 0.0 0.00 0.00 0.00 95 1015.8
20260906041004 22 0 0.0 0.0 0.00 0.00 0.00 95 1015.7
20260906040504 22 0 0.0 0.0 0.00 0.00 0.00 95 1015.6
20260906040004 22 0 0.0 0.0 0.00 0.00 0.00 95 1015.8
20260906035504 22 0 0.0 0.0 0.00 0.00 0.00 95 1015.9
20260906035004 22 0 0.0 0.0 0.00 0.00 0.00 95 1016.0
20260906034504 22 0 0.0 0.0 0.00 0.00 0.00 95 1016.1
20260906033504 22 270 0.0 1.6 0.00 0.00 0.00 94 1016.2
20260906033004 22 0 0.0 0.0 0.00 0.00 0.00 94 1016.1
20260906032504 22 270 0.0 1.6 0.00 0.00 0.00 95 1016.1
20260906032003 22 270 0.0 1.6 0.00 0.00 0.00 95 1016.2
20260906031503 22 270 0.0 1.6 0.00 0.00 0.00 95 1016.1
20260906030503 22 0 0.0 0.0 0.00 0.00 0.00 96 1016.2
20260906030003 22 0 0.0 0.0 0.00 0.00 0.00 96 1016.2
20260906025004 22 0 0.0 0.0 0.00 0.00 0.00 96 1016.3
20260906024003 22 0 0.0 0.0 0.00 0.00 0.00 96 1016.2
20260906023503 21 0 0.0 0.0 0.00 0.00 0.00 96 1016.2
20260906023004 21 0 0.0 0.0 0.00 0.00 0.00 96 1016.2
20260906022003 21 0 0.0 0.0 0.00 0.00 0.00 96 1015.9
20260906021503 21 0 0.0 0.0 0.00 0.00 0.00 95 1015.8
20260906020504 21 0 0.0 0.0 0.00 0.00 0.00 96 1015.8
20260906020003 21 0 0.0 0.0 0.00 0.00 0.00 95 1015.7
20260906015503 22 0 0.0 0.0 0.00 0.00 0.00 95 1015.6
20260906015004 22 0 0.0 0.0 0.00 0.00 0.00 95 1015.7
20260906014504 22 0 0.0 0.0 0.00 0.00 0.00 95 1015.7
20260906014003 22 0 0.0 0.0 0.00 0.00 0.00 95 1015.8
20260906013504 22 0 0.0 0.0 0.00 0.00 0.00 95 1015.9
20260906013004 22 0 0.0 0.0 0.00 0.00 0.00 95 1015.8
20260906012503 22 0 0.0 0.0 0.00 0.00 0.00 94 1015.7
20260906012004 22 0 0.0 0.0 0.00 0.00 0.00 94 1015.7
20260906011003 22 0 0.0 0.0 0.00 0.00 0.00 94 1015.7
20260906010503 22 0 0.0 0.0 0.00 0.00 0.00 94 1015.5
20260906010004 22 0 0.0 0.0 0.00 0.00 0.00 94 1015.5
20260906005003 22 0 0.0 0.0 0.00 0.00 0.00 93 1015.5
20260906004503 22 0 0.0 0.0 0.00 0.00 0.00 93 1015.4
20260906004004 22 0 0.0 0.0 0.00 0.00 0.00 93 1015.2
20260906003504 22 0 0.0 0.0 0.00 0.00 0.00 93 1015.2
20260906003003 22 0 0.0 0.0 0.00 0.00 0.00 93 1015.2
20260906002004 23 0 0.0 0.0 0.00 0.00 0.00 93 1015.1
20260906001504 23 0 0.0 0.0 0.00 0.00 0.00 93 1015.0
20260906000004 23 0 0.0 0.0 0.00 0.00 0.00 92 1014.8
20260905235504 23 0 0.0 0.0 0.00 0.00 0.00 92 1014.8
20260905234504 23 0 0.0 0.0 0.00 0.00 0.00 91 1014.6
20260905233504 24 0 0.0 0.0 0.00 0.00 0.00 91 1014.7
20260905233003 24 0 0.0 0.0 0.00 0.00 0.00 90 1014.8
20260905231504 24 270 0.0 1.6 0.00 0.00 0.00 89 1014.8
20260905231002 24 270 0.0 1.6 0.00 0.00 0.00 88 1014.6
20260905230502 24 270 0.0 1.6 0.00 0.00 0.00 88 1014.7
20260905230002 24 270 0.0 1.6 0.00 0.00 0.00 89 1014.7
20260905225502 24 270 0.0 1.6 0.00 0.00 0.00 87 1014.5
20260905224502 25 270 0.0 1.6 0.00 0.00 0.00 89 1014.5
20260905224002 25 270 0.0 1.6 0.00 0.00 0.00 88 1014.6
20260905223003 25 0 0.0 0.0 0.00 0.00 0.00 87 1014.5
20260905222502 25 270 0.0 1.6 0.00 0.00 0.00 86 1014.5
20260905222002 25 270 0.0 1.6 0.00 0.00 0.00 85 1014.7
20260905221503 25 270 0.0 1.6 0.00 0.00 0.00 85 1014.8
20260905221002 25 270 0.0 1.6 0.00 0.00 0.00 84 1014.7
20260905220502 25 270 0.0 1.6 0.00 0.00 0.00 84 1014.7
20260905220002 25 270 1.6 1.6 0.00 0.00 0.00 84 1014.8
20260905215502 25 270 0.0 1.6 0.00 0.00 0.00 84 1014.8
20260905215002 25 270 0.0 1.6 0.00 0.00 0.00 85 1014.9
20260905214502 25 270 0.0 1.6 0.00 0.00 0.00 86 1015.0
20260905214003 25 270 0.0 1.6 0.00 0.00 0.00 86 1015.1
20260905213002 25 110 0.0 4.8 0.00 0.00 0.00 85 1015.2
20260905212502 25 95 0.0 1.6 0.00 0.00 0.00 85 1015.3
20260905211502 25 95 0.0 1.6 0.00 0.00 0.00 84 1015.4
20260905211003 25 95 0.0 1.6 0.00 0.00 0.00 84 1015.5
20260905210503 25 95 0.0 4.8 0.00 0.00 0.00 84 1015.5
20260905210003 25 95 0.0 4.8 0.00 0.00 0.00 83 1015.3
20260905205502 25 95 0.0 1.6 0.00 0.00 0.00 84 1015.5
20260905205002 25 95 0.0 1.6 0.00 0.00 0.00 84 1015.4
20260905204503 25 0 0.0 0.0 0.00 0.00 0.00 84 1015.4
20260905204003 25 95 0.0 1.6 0.00 0.00 0.00 84 1015.7
20260905203503 25 95 0.0 1.6 0.00 0.00 0.00 83 1015.6
20260905203003 25 95 0.0 1.6 0.00 0.00 0.00 84 1015.7
20260905202002 25 95 0.0 1.6 0.00 0.00 0.00 82 1015.7
20260905201503 24 94 0.0 1.6 0.00 0.00 0.00 80 1015.8
20260905201002 24 95 0.0 1.6 0.00 0.00 0.00 82 1015.7
20260905200502 24 73 0.0 1.6 0.00 0.00 0.00 81 1015.8
20260905200003 24 71 0.0 1.6 0.00 0.00 0.00 82 1015.9
20260905195502 24 70 0.0 1.6 0.00 0.00 0.00 82 1016.0
20260905195002 24 70 0.0 4.8 0.00 0.00 0.00 81 1016.0
20260905194502 24 70 0.0 4.8 0.00 0.00 0.00 82 1016.0
20260905193502 24 69 0.0 1.6 0.00 0.00 0.00 81 1016.0
20260905193003 24 69 0.0 1.6 0.00 0.00 0.00 81 1016.0
20260905192502 23 0 0.0 0.0 0.00 0.00 0.00 80 1016.0
20260905192003 23 0 0.0 0.0 0.00 0.00 0.00 80 1016.2
20260905191502 24 70 0.0 1.6 0.00 0.00 0.00 80 1016.2
20260905191003 24 70 0.0 1.6 0.00 0.00 0.00 79 1016.4
20260905190502 24 70 0.0 4.8 0.00 0.00 0.00 78 1016.4
20260905190002 24 75 0.0 4.8 0.00 0.00 0.00 79 1016.6
20260905185502 24 130 0.0 4.8 0.00 0.00 0.00 80 1016.8
20260905185003 24 166 1.6 4.8 0.00 0.00 0.00 79 1017.1
20260905184503 25 164 1.6 4.8 0.00 0.00 0.00 81 1017.5
20260905184002 25 154 3.2 11.3 0.00 0.00 0.00 81 1017.5
20260905183503 25 156 3.2 16.1 0.00 0.00 0.00 80 1017.4
20260905183002 25 165 1.6 16.1 0.00 0.00 0.00 81 1017.2
20260905182502 25 271 0.0 4.8 0.00 0.00 0.00 80 1016.6
20260905182002 25 242 1.6 4.8 0.00 0.00 0.00 81 1016.6
20260905181503 26 234 1.6 4.8 0.00 0.00 0.00 79 1016.5
20260905181003 26 230 1.6 4.8 0.00 0.00 0.00 79 1016.6
20260905180503 27 232 1.6 4.8 0.00 0.00 0.00 80 1016.4
20260905180003 27 211 1.6 4.8 0.00 0.00 0.00 78 1016.3
20260905175503 28 172 1.6 4.8 0.00 0.00 0.00 76 1016.5
20260905175003 28 168 1.6 4.8 0.00 0.00 0.00 77 1016.4
20260905174504 28 168 0.0 4.8 0.00 0.00 0.00 75 1016.3
20260905174002 28 168 0.0 4.8 0.00 0.00 0.00 74 1016.6
20260905173502 29 168 1.6 4.8 0.00 0.00 0.00 74 1016.5
20260905172003 30 168 1.6 9.7 0.00 0.00 0.00 72 1016.6
20260905171003 30 168 3.2 12.9 0.00 0.00 0.00 72 1016.5
20260905170503 29 175 3.2 12.9 0.00 0.00 0.00 73 1016.6
20260905170003 29 178 3.2 11.3 0.00 0.00 0.00 74 1016.8
20260905165503 29 167 4.8 12.9 0.00 0.00 0.00 75 1016.8
20260905165003 28 161 3.2 12.9 0.00 0.00 0.00 75 1016.8
20260905164503 28 163 1.6 9.7 0.00 0.00 0.00 77 1016.8
20260905163503 28 172 6.4 12.9 0.00 0.00 0.00 77 1017.0
20260905163003 28 183 3.2 11.3 0.00 0.00 0.00 76 1017.2
20260905162503 28 189 3.2 9.7 0.00 0.00 0.00 79 1017.3
20260905162002 28 185 3.2 9.7 0.00 0.00 0.00 78 1017.5
20260905161502 28 178 3.2 11.3 0.00 0.00 0.00 79 1017.5
20260905161003 28 172 4.8 11.3 0.00 0.00 0.00 79 1017.5
20260905160503 27 170 3.2 11.3 0.00 0.00 0.00 80 1017.6
20260905160003 27 176 1.6 4.8 0.00 0.00 0.00 81 1017.5
20260905155002 27 197 3.2 9.7 0.00 0.00 0.00 80 1017.4
20260905154002 27 172 4.8 12.9 0.00 0.00 0.00 82 1017.5
20260905153503 27 168 1.6 9.7 0.00 0.00 0.00 84 1017.6
20260905152503 26 185 1.6 6.4 0.00 0.00 0.00 85 1017.5
20260905152003 26 185 1.6 6.4 0.00 0.00 0.00 86 1017.5
20260905151503 26 181 1.6 6.4 0.00 0.00 0.00 86 1017.3
20260905151003 26 175 1.6 6.4 0.00 0.00 0.00 86 1017.4
20260905150003 26 167 1.6 9.7 0.00 0.00 0.00 88 1017.4
20260905145002 25 167 3.2 11.3 0.00 0.00 0.00 87 1017.4
20260905144503 25 170 1.6 11.3 0.00 0.00 0.00 89 1017.4
20260905143502 25 195 1.6 9.7 0.00 0.00 0.00 89 1017.5
20260905143003 24 223 0.0 1.6 0.00 0.00 0.00 91 1017.6
20260905142503 24 223 0.0 1.6 0.00 0.00 0.00 92 1017.5
20260905142003 24 223 0.0 1.6 0.00 0.00 0.00 92 1017.5
20260905141003 23 223 0.0 1.6 0.00 0.00 0.00 92 1017.6
20260905140503 23 223 0.0 1.6 0.00 0.00 0.00 93 1017.7
20260905140003 23 223 0.0 1.6 0.00 0.00 0.00 93 1017.7
20260905135503 23 223 0.0 1.6 0.00 0.00 0.00 93 1017.7
20260905135002 23 223 0.0 1.6 0.00 0.00 0.00 94 1017.7
20260905134503 23 223 0.0 1.6 0.00 0.00 0.00 94 1017.8
20260905134003 23 223 0.0 1.6 0.00 0.00 0.00 94 1017.7
20260905133502 23 223 0.0 1.6 0.00 0.00 0.00 94 1017.9
20260905133003 23 223 0.0 1.6 0.00 0.00 0.00 95 1017.9
20260905132503 22 223 0.0 4.8 0.00 0.00 0.00 95 1017.9
20260905132003 22 223 1.6 4.8 0.00 0.00 0.00 95 1018.0
20260905131502 22 223 1.6 4.8 0.00 0.00 0.00 95 1018.0
20260905131003 22 223 1.6 4.8 0.00 0.00 0.00 96 1018.0
20260905130503 22 223 1.6 4.8 0.00 0.00 0.00 96 1018.0
20260905130003 22 223 0.0 4.8 0.00 0.00 0.00 97 1018.0
20260905125503 22 223 0.0 4.8 0.00 0.00 0.00 97 1017.9
20260905125003 22 228 0.0 4.8 0.00 0.00 0.00 97 1017.9
20260905124503 21 245 0.0 1.6 0.00 0.00 0.00 100 1017.9
20260905123503 21 149 0.0 1.6 0.00 0.00 0.00 100 1017.8
20260905123003 21 0 0.0 0.0 0.00 0.00 0.00 99 1017.6
20260905122503 21 0 0.0 0.0 0.00 0.00 0.00 99 1017.7
20260905122003 21 0 0.0 0.0 0.00 0.00 0.00 99 1017.8
20260905121503 21 0 0.0 0.0 0.00 0.00 0.00 99 1017.6
20260905121002 21 149 0.0 1.6 0.00 0.00 0.00 99 1017.6
20260905120503 21 149 0.0 1.6 0.00 0.00 0.00 99 1017.6
20260905120003 21 149 0.0 1.6 0.00 0.00 0.00 100 1017.6
20260905115503 21 149 0.0 1.6 0.00 0.00 0.00 100 1017.7
20260905115003 21 149 0.0 1.6 0.00 0.00 0.00 100 1017.6
20260905114502 21 149 0.0 1.6 0.00 0.00 0.00 100 1017.5
20260905114005 20 0 0.0 0.0 0.00 0.00 0.00 100 1017.3
20260905113503 20 0 0.0 0.0 0.00 0.00 0.00 100 1017.3
20260905113002 20 0 0.0 0.0 0.00 0.00 0.00 100 1017.1
20260905112503 20 0 0.0 0.0 0.00 0.00 0.00 100 1017.1
20260905112003 20 0 0.0 0.0 0.00 0.00 0.00 99 1017.1
20260905111004 20 0 0.0 0.0 0.00 0.00 0.00 99 1017.0
20260905110503 20 0 0.0 0.0 0.00 0.00 0.00 99 1017.0
20260905110003 21 0 0.0 0.0 0.00 0.00 0.00 99 1016.9
20260905105503 21 0 0.0 0.0 0.00 0.00 0.00 99 1016.8
20260905104503 21 0 0.0 0.0 0.00 0.00 0.00 99 1016.6
20260905104003 21 0 0.0 0.0 0.00 0.00 0.00 99 1016.5
20260905103503 21 0 0.0 0.0 0.00 0.00 0.00 99 1016.5
20260905103003 21 149 0.0 1.6 0.00 0.00 0.00 99 1016.6
20260905102503 21 149 0.0 1.6 0.00 0.00 0.00 99 1016.4
20260905101504 21 0 0.0 0.0 0.00 0.00 0.00 100 1016.4
20260905101004 21 0 0.0 0.0 0.00 0.00 0.00 100 1016.4
20260905100503 21 0 0.0 0.0 0.00 0.00 0.00 100 1016.4
20260905095503 21 0 0.0 0.0 0.00 0.00 0.00 100 1016.4
20260905095004 21 0 0.0 0.0 0.00 0.00 0.00 100 1016.4
20260905094003 21 0 0.0 0.0 0.00 0.00 0.00 97 1016.4
20260905093003 21 0 0.0 0.0 0.00 0.00 0.00 97 1016.4
20260905092503 21 0 0.0 0.0 0.00 0.00 0.00 100 1016.4
20260905092003 21 0 0.0 0.0 0.00 0.00 0.00 100 1016.4
20260905091503 21 0 0.0 0.0 0.00 0.00 0.00 97 1016.4
20260905091003 21 0 0.0 0.0 0.00 0.00 0.00 97 1016.4
20260905090503 22 0 0.0 0.0 0.00 0.00 0.00 97 1016.6
20260905090003 22 149 0.0 1.6 0.00 0.00 0.00 97 1016.5
20260905085503 22 149 0.0 1.6 0.00 0.00 0.00 97 1016.5
20260905085003 22 0 0.0 0.0 0.00 0.00 0.00 97 1016.6
20260905084503 22 0 0.0 0.0 0.00 0.00 0.00 97 1016.6
20260905084004 22 0 0.0 0.0 0.00 0.00 0.00 100 1016.8
20260905083503 22 0 0.0 0.0 0.00 0.00 0.00 100 1016.8
20260905083003 22 0 0.0 0.0 0.00 0.00 0.00 100 1016.9
20260905082503 22 0 0.0 0.0 0.00 0.00 0.00 100 1016.9
20260905082003 22 149 0.0 1.6 0.00 0.00 0.00 100 1016.9
20260905081503 22 149 0.0 1.6 0.00 0.00 0.00 100 1016.9
20260905080503 21 149 0.0 1.6 0.00 0.00 0.00 100 1017.0
20260905080004 21 149 0.0 1.6 0.00 0.00 0.00 99 1017.1
20260905075504 21 149 0.0 1.6 0.00 0.00 0.00 99 1017.1
20260905075004 21 0 0.0 0.0 0.00 0.00 0.00 99 1017.0
20260905074504 21 149 0.0 1.6 0.00 0.00 0.00 99 1017.1
20260905073503 21 149 0.0 1.6 0.00 0.00 0.00 99 1017.1
20260905073003 21 149 0.0 1.6 0.00 0.00 0.00 100 1017.2
20260905072504 21 149 0.0 1.6 0.00 0.00 0.00 100 1017.3
20260905072004 21 0 0.0 0.0 0.00 0.00 0.00 100 1017.3
20260905071003 21 149 0.0 1.6 0.00 0.00 0.00 100 1017.4
20260905070503 21 0 0.0 0.0 0.00 0.00 0.00 100 1017.4
20260905065503 21 0 0.0 0.0 0.00 0.00 0.00 100 1017.5
20260905065003 21 0 0.0 0.0 0.00 0.00 0.00 100 1017.5
20260905064503 21 0 0.0 0.0 0.00 0.00 0.00 100 1017.6
20260905064004 21 0 0.0 0.0 0.00 0.00 0.00 97 1017.6
20260905063503 21 0 0.0 0.0 0.00 0.00 0.00 97 1017.8
20260905063003 21 0 0.0 0.0 0.00 0.00 0.00 97 1017.8
20260905062504 21 0 0.0 0.0 0.00 0.00 0.00 97 1017.8
20260905062003 21 0 0.0 0.0 0.00 0.00 0.00 96 1017.8
20260905061503 21 0 0.0 0.0 0.00 0.00 0.00 96 1017.9
20260905061003 21 0 0.0 0.0 0.00 0.00 0.00 96 1017.9
20260905060004 22 0 0.0 0.0 0.00 0.00 0.00 96 1017.9
20260905055504 22 0 0.0 0.0 0.00 0.00 0.00 96 1018.0
20260905055004 22 0 0.0 0.0 0.00 0.00 0.00 96 1018.0
20260905054503 22 0 0.0 0.0 0.00 0.00 0.00 96 1018.0
20260905054003 22 0 0.0 0.0 0.00 0.00 0.00 96 1018.1
20260905053503 22 0 0.0 0.0 0.00 0.00 0.00 95 1018.1
20260905053004 22 0 0.0 0.0 0.00 0.00 0.00 95 1018.1
20260905052004 22 0 0.0 0.0 0.00 0.00 0.00 95 1018.1
20260905051504 22 0 0.0 0.0 0.00 0.00 0.00 95 1018.1
20260905051003 22 0 0.0 0.0 0.00 0.00 0.00 95 1018.2
20260905050503 22 0 0.0 0.0 0.00 0.00 0.00 95 1018.2
20260905050003 22 0 0.0 0.0 0.00 0.00 0.00 94 1018.2
20260905045503 22 0 0.0 0.0 0.00 0.00 0.00 94 1018.3